Content
SEND FEEDBACK

Daily
Averages
Monthly
Summary
France

AVIGNON, FRANCE


Home > Europe > France
Elevation: 187 feet     Latitude: 44 00N     Longitude: 004 45E

WEATHER
 
SELECT A DAY
Number of Records: 167,762;   Date Range: 5/17/04 - 9/15/14
 
SHARE

PRINT THIS DATA

[ ← Previous Day ]
WEATHER ALMANAC - SEPTEMBER 25, 2013
[ Next Day → ]
[ °C ]   °F
Weather ElementAverageHighLow
Temperature65.8 °F78.8 °F (3:30 pm)53.6 °F (12:30 am)
Dewpoint58 °F64.4 °F (2:30 pm)50 °F (12:30 am)
Humidity77.4 %94 % (1:00 am)57 % (3:30 pm)
Barometer29.98 in30.01 in (12:30 am)29.92 in (5:00 pm)
Wind Speed2.8 mph8.1 mph (7:00 pm)
Weather ElementAverage
Visibility6.1 mi
Wind DirectionE (87.7 °)

Weather ElementTotal
Precipitation---
Cooling Degree Days1.2 (Base 65)
Growing Degree Days16.2 (Base 50)
Averaged from 47 records on September 25, 2013
WEATHER CONDITIONS BREAKOUT
WIND DIRECTION BREAKOUT
WEATHER BY HOUR - SEPTEMBER 25, 2013
[ °C ]   °F
Local TimeTemperatureDewpointHumidityBarometerVisibilityWind DirectionWind SpeedGust SpeedPrecipitationEventsConditions
12:30 AM53.6 °F50.0 °F88 %30.01 in6.2 miESE (110°)2.3 mph
1:00 AM55.4 °F53.6 °F94 %30.01 in6.2 miSE (130°)1.2 mph
1:30 AM55.4 °F51.8 °F88 %30.01 in6.2 miSouth (180°)2.3 mph
2:00 AM55.4 °F53.6 °F94 %30.01 in6.2 miSouth (190°)2.3 mphMostly Cloudy
2:30 AM55.4 °F53.6 °F94 %30.01 in6.2 miENE (60°)1.2 mphPartly Cloudy
3:00 AM53.6 °F51.8 °F94 %29.98 in6.2 miCalm
3:30 AM55.4 °F53.6 °F94 %29.98 in6.2 miCalm
4:00 AM53.6 °F51.8 °F94 %29.98 in6.2 miVariable2.3 mphPartly Cloudy
4:30 AM55.4 °F53.6 °F94 %29.98 in6.2 miVariable2.3 mphPartly Cloudy
5:00 AM55.4 °F51.8 °F88 %29.98 in6.2 miVariable2.3 mphPartly Cloudy
5:30 AM57.2 °F53.6 °F88 %29.98 in6.2 miVariable1.2 mphMostly Cloudy
6:00 AM57.2 °F53.6 °F88 %29.98 in6.2 miVariable1.2 mphOvercast
6:30 AM59.0 °F53.6 °F82 %29.98 in6.2 miVariable2.3 mphOvercast
7:00 AM59.0 °F53.6 °F82 %29.98 in6.2 miVariable3.5 mphMostly Cloudy
7:30 AM59.0 °F53.6 °F82 %29.98 in6.2 miVariable2.3 mphOvercast
8:00 AM59.0 °F53.6 °F82 %29.98 in6.2 miVariable1.2 mphOvercast
8:30 AM60.8 °F53.6 °F77 %29.98 in6.2 miCalmOvercast
9:00 AM60.8 °F55.4 °F82 %29.98 in6.2 miVariable2.3 mphOvercast
9:30 AM62.6 °F55.4 °F77 %29.98 in6.2 miCalmOvercast
10:00 AM64.4 °F53.6 °F68 %29.98 in6.2 miVariable2.3 mphOvercast
10:30 AM64.4 °F55.4 °F73 %30.01 in6.2 miVariable2.3 mphOvercast
11:00 AM66.2 °F55.4 °F68 %30.01 in6.2 miCalmOvercast
11:30 AM68.0 °F57.2 °F68 %30.01 in6.2 miVariable2.3 mphOvercast
12:00 PM69.8 °F55.4 °F60 %30.01 in6.2 miESE (120°)4.6 mphOvercast
12:30 PM71.6 °F57.2 °F60 %30.01 in6.2 miVariable3.5 mphMostly Cloudy
1:00 PM73.4 °F60.8 °F65 %30.01 in6.2 miSouth (180°)5.8 mphMostly Cloudy
1:30 PM75.2 °F62.6 °F65 %29.98 in6.2 miSSW (210°)3.5 mphOvercast
2:00 PM75.2 °F62.6 °F65 %29.98 in6.2 miVariable3.5 mphMostly Cloudy
2:30 PM77.0 °F64.4 °F65 %29.98 in6.2 miSouth (190°)4.6 mphMostly Cloudy
3:00 PM77.0 °F62.6 °F61 %29.95 in6.2 miVariable2.3 mphPartly Cloudy
3:30 PM78.8 °F62.6 °F57 %29.95 in6.2 miVariable3.5 mph
4:00 PM78.8 °F62.6 °F57 %29.95 in6.2 miVariable3.5 mphPartly Cloudy
4:30 PM78.8 °F62.6 °F57 %29.95 in6.2 miWNW (290°)3.5 mphPartly Cloudy
5:00 PM78.8 °F62.6 °F57 %29.92 in6.2 miVariable2.3 mphPartly Cloudy
5:30 PM78.8 °F62.6 °F57 %29.92 in6.2 miWSW (250°)5.8 mphPartly Cloudy
6:00 PM78.8 °F62.6 °F57 %29.92 in6.2 miSW (230°)4.6 mphScattered Clouds
6:30 PM77.0 °F62.6 °F61 %29.92 in6.2 miSW (220°)5.8 mphPartly Cloudy
7:00 PM75.2 °F64.4 °F69 %29.92 in6.2 miWSW (240°)8.1 mphMostly Cloudy
7:30 PM73.4 °F64.4 °F73 %29.95 in6.2 miSSW (210°)5.8 mph
8:00 PM71.6 °F64.4 °F78 %29.95 in6.2 miSW (220°)4.6 mph
8:30 PM68.0 °F64.4 °F88 %29.95 in6.2 miSouth (190°)5.8 mph
9:00 PM68.0 °F64.4 °F88 %29.98 in6.2 miSouth (190°)4.6 mph
9:30 PM66.2 °F62.6 °F88 %29.98 in6.2 miSSE (160°)3.5 mph
10:00 PM64.4 °F62.6 °F94 %29.98 in6.2 miSouth (170°)2.3 mph
10:30 PM64.4 °F62.6 °F94 %29.98 in6.2 miSouth (190°)2.3 mph
11:00 PM64.4 °F60.8 °F88 %29.98 in4.3 miCalm
11:30 PM62.6 °F60.8 °F94 %29.98 in4.3 miSouth (190°)1.2 mphPartly Cloudy
Hourly data recorded from LFMV, located miles away from Avignon, France







STORIES FROM OUR PARTNERS